This is the latest recevied weather packets stored in our database for station/object KB1FPD. If no packets are shown the sender has not sent any weather packets the latest 1 day(s).
| Time | Temp. | Humidity | Pressure | Rain* | Wind** | Luminosity | Snow |
|---|---|---|---|---|---|---|---|
| 1778080055 | 14.44° C | 94% | 1008.7 hPa | 1.02 mm | - | - | - |
| 1778079457 | 14.44° C | 94% | 1008.9 hPa | 1.27 mm | - | - | - |
| 1778079159 | 14.44° C | 94% | 1008.8 hPa | 1.27 mm | - | - | - |
| 1778076456 | 13.89° C | 93% | 1009.4 hPa | 1.52 mm | - | - | - |
| 1778074654 | 13.89° C | 93% | 1009.1 hPa | 1.78 mm | - | - | - |
| 1778074356 | 13.89° C | 93% | 1009.1 hPa | 2.03 mm | - | - | - |
| 1778072854 | 14.44° C | 92% | 1009.4 hPa | 1.52 mm | - | - | - |
| 1778072555 | 14.44° C | 92% | 1009.4 hPa | 1.52 mm | - | - | - |
| 1778072255 | 14.44° C | 92% | 1009.4 hPa | 1.78 mm | - | - | - |
| 1778071655 | 14.44° C | 92% | 1009.5 hPa | 1.52 mm | - | - | - |
| 1778071056 | 14.44° C | 92% | 1009.4 hPa | 1.52 mm | - | - | - |
| 1778070750 | 14.44° C | 91% | 1009.2 hPa | 1.27 mm | - | - | - |
| 1778069853 | 14.44° C | 91% | 1009.5 hPa | 1.52 mm | - | - | - |
| 1778069251 | 14.44° C | 90% | 1009.6 hPa | 2.03 mm | - | - | - |
| 1778068948 | 14.44° C | 90% | 1009.6 hPa | 1.78 mm | - | - | - |
| 1778068652 | 14.44° C | 90% | 1009.7 hPa | 1.52 mm | - | - | - |
| 1778068349 | 14.44° C | 90% | 1009.8 hPa | 1.52 mm | - | - | - |
| 1778068048 | 14.44° C | 90% | 1009.8 hPa | 1.27 mm | - | - | - |
| 1778067449 | 14.44° C | 89% | 1009.8 hPa | 1.02 mm | - | - | - |
| 1778067148 | 15° C | 88% | 1009.9 hPa | 1.02 mm | - | - | - |
| 1778066548 | 15° C | 87% | 1009.9 hPa | 0.76 mm | - | - | - |
| 1778066247 | 15° C | 86% | 1009.8 hPa | 0.51 mm | - | - | - |
| 1778065947 | 15.56° C | 86% | 1009.8 hPa | 0.25 mm | - | - | - |
| 1778064147 | 15.56° C | 81% | 1009.4 hPa | 0 mm | - | - | - |
| 1778063844 | 15.56° C | 81% | 1009.3 hPa | 0 mm | - | - | - |
* Rain latest hour (hover to see other rain measurements)
** Current wind speed in m/s (hover to see current wind gust speed)